GLOBALSTAR M045 [-]

Last updated on Fri Dec 29 2023 00:02:56 GMT+0000 (Coordinated Universal Time)

1 25676U 99019A 23362.29599964 -.00000020 00000+0 65205-3 0 9996 2 25676 51.9991 35.4757 0000710 214.3064 226.8469 12.27022796127725

Satellite not in orbit

GLOBALSTAR M045 [-]